Location: Unspecified
(90.0000°S, 0.0000°E)
Time: 23:38:06
(UTC-05:00)

Envisat - Visible Passes

Search period start: 25 April 2019 00:00
Search period end: 05 May 2019 00:00
Orbit: 764 x 766 km, 98.2° (Epoch: 25 April)

Date Brightness Start Highest point End Pass type
(mag) Time Alt. Az. Time Alt. Az. Time Alt. Az.
25 Apr 3.6 00:18:59 10° N 00:23:45 35° WNW 00:28:31 10° SW visible
25 Apr 3.6 01:59:11 10° NNW 02:03:56 35° W 02:08:43 10° SSW visible
25 Apr 3.6 03:39:22 10° NW 03:44:08 35° WSW 03:48:55 10° S visible
25 Apr 3.6 05:19:34 10° WNW 05:24:21 35° SW 05:29:07 10° SSE visible
25 Apr 3.6 06:59:47 10° W 07:04:33 35° SSW 07:09:19 10° SE visible
25 Apr 3.6 08:39:58 10° WSW 08:44:45 35° S 08:49:31 10° ESE visible
25 Apr 3.6 10:20:11 10° SSW 10:24:57 35° SE 10:29:43 10° ENE visible
25 Apr 3.6 12:00:23 10° S 12:05:09 35° ESE 12:09:55 10° NE visible
25 Apr 3.6 13:40:35 10° SSE 13:45:21 35° E 13:50:07 10° NNE visible
25 Apr 3.6 15:20:47 10° SE 15:25:33 35° ENE 15:30:19 10° N visible
25 Apr 3.6 17:00:59 10° ESE 17:05:45 35° NE 17:10:31 10° NNW visible
25 Apr 3.6 18:41:11 10° E 18:45:57 35° NNE 18:50:43 10° NW visible
25 Apr 3.6 20:21:24 10° ENE 20:26:09 35° N 20:30:56 10° WNW visible
25 Apr 3.6 22:01:35 10° NE 22:06:21 35° NNW 22:11:08 10° W visible
25 Apr 3.6 23:41:47 10° N 23:46:34 35° NW 23:51:20 10° WSW visible
26 Apr 3.6 01:21:59 10° NNW 01:26:46 35° W 01:31:32 10° SSW visible
26 Apr 3.6 03:02:11 10° NW 03:06:58 35° WSW 03:11:44 10° S visible
26 Apr 3.6 04:42:23 10° WNW 04:47:10 35° SW 04:51:56 10° SSE visible
26 Apr 3.6 06:22:35 10° W 06:27:22 35° SSW 06:32:08 10° SE visible
26 Apr 3.6 08:02:47 10° WSW 08:07:34 35° S 08:12:20 10° ESE visible
26 Apr 3.6 09:42:59 10° SW 09:47:46 35° SSE 09:52:32 10° E visible
26 Apr 3.6 11:23:12 10° SSW 11:27:58 35° SE 11:32:44 10° ENE visible
26 Apr 3.6 13:03:24 10° S 13:08:10 35° ESE 13:12:56 10° NE visible
26 Apr 3.6 14:43:36 10° SE 14:48:22 35° E 14:53:09 10° NNE visible
26 Apr 3.6 16:23:48 10° ESE 16:28:34 35° NE 16:33:20 10° NNW visible
26 Apr 3.6 18:04:00 10° E 18:08:47 35° NNE 18:13:32 10° NW visible
26 Apr 3.6 19:44:12 10° ENE 19:48:58 35° N 19:53:44 10° WNW visible
26 Apr 3.6 21:24:24 10° NE 21:29:10 35° NNW 21:33:57 10° W visible
26 Apr 3.6 23:04:36 10° NNE 23:09:23 35° NW 23:14:09 10° WSW visible
27 Apr 3.6 00:44:48 10° N 00:49:35 35° WNW 00:54:21 10° SW visible
27 Apr 3.6 02:25:01 10° NNW 02:29:47 35° W 02:34:33 10° SSW visible
27 Apr 3.6 04:05:12 10° NW 04:09:59 35° WSW 04:14:45 10° S visible
27 Apr 3.6 05:45:25 10° W 05:50:11 35° SSW 05:54:57 10° SSE visible
27 Apr 3.6 07:25:37 10° WSW 07:30:23 35° S 07:35:09 10° ESE visible
27 Apr 3.6 09:05:49 10° SW 09:10:35 35° SSE 09:15:21 10° E visible
27 Apr 3.6 10:46:01 10° SSW 10:50:47 35° SE 10:55:33 10° ENE visible
27 Apr 3.6 12:26:13 10° S 12:30:59 35° ESE 12:35:45 10° NE visible
27 Apr 3.6 14:06:24 10° SSE 14:11:11 35° E 14:15:57 10° NNE visible
27 Apr 3.6 15:46:37 10° SE 15:51:23 35° ENE 15:56:09 10° N visible
27 Apr 3.6 17:26:49 10° ESE 17:31:35 35° NE 17:36:21 10° NNW visible
27 Apr 3.6 19:07:01 10° E 19:11:47 35° NNE 19:16:33 10° NW visible
27 Apr 3.6 20:47:13 10° NE 20:51:59 35° NNW 20:56:45 10° WNW visible
27 Apr 3.6 22:27:25 10° NNE 22:32:11 35° NW 22:36:58 10° WSW visible
28 Apr 3.6 00:07:37 10° N 00:12:23 35° WNW 00:17:10 10° SW visible
28 Apr 3.6 01:47:49 10° NNW 01:52:35 35° W 01:57:22 10° SSW visible
28 Apr 3.6 03:28:01 10° NW 03:32:48 35° WSW 03:37:34 10° S visible
28 Apr 3.6 05:08:13 10° WNW 05:13:00 35° SW 05:17:46 10° SSE visible
28 Apr 3.6 06:48:26 10° W 06:53:12 35° SSW 06:57:58 10° SE visible
28 Apr 3.6 08:28:38 10° WSW 08:33:24 35° S 08:38:10 10° ESE visible
28 Apr 3.6 10:08:50 10° SW 10:13:36 35° SSE 10:18:22 10° E visible
28 Apr 3.6 11:49:02 10° S 11:53:48 35° ESE 11:58:34 10° NE visible
28 Apr 3.6 13:29:13 10° SSE 13:34:00 35° E 13:38:46 10° NNE visible
28 Apr 3.6 15:09:26 10° SE 15:14:12 35° ENE 15:18:58 10° N visible
28 Apr 3.6 16:49:38 10° ESE 16:54:24 35° NE 16:59:11 10° NNW visible
28 Apr 3.6 18:29:50 10° E 18:34:36 35° NNE 18:39:23 10° NW visible
28 Apr 3.6 20:10:02 10° ENE 20:14:48 35° N 20:19:34 10° WNW visible
28 Apr 3.6 21:50:14 10° NE 21:55:00 35° NNW 21:59:47 10° W visible
28 Apr 3.6 23:30:26 10° NNE 23:35:12 35° NW 23:39:59 10° WSW visible
29 Apr 3.6 01:10:38 10° NNW 01:15:24 35° WNW 01:20:11 10° SW visible
29 Apr 3.6 02:50:50 10° NW 02:55:36 35° WSW 03:00:23 10° S visible
29 Apr 3.6 04:31:03 10° WNW 04:35:48 35° SW 04:40:35 10° SSE visible
29 Apr 3.6 06:11:15 10° W 06:16:01 35° SSW 06:20:47 10° SE visible
29 Apr 3.6 07:51:26 10° WSW 07:56:13 35° S 08:00:59 10° ESE visible
29 Apr 3.6 09:31:39 10° SW 09:36:25 35° SSE 09:41:11 10° E visible
29 Apr 3.6 11:11:51 10° SSW 11:16:37 35° SE 11:21:23 10° ENE visible
29 Apr 3.6 12:52:03 10° S 12:56:49 35° ESE 13:01:35 10° NE visible
29 Apr 3.6 14:32:15 10° SSE 14:37:01 35° E 14:41:47 10° NNE visible
29 Apr 3.6 16:12:27 10° ESE 16:17:13 35° ENE 16:21:59 10° N visible
29 Apr 3.6 17:52:39 10° E 17:57:25 35° NNE 18:02:11 10° NW visible
29 Apr 3.6 19:32:51 10° ENE 19:37:37 35° N 19:42:23 10° WNW visible
29 Apr 3.6 21:13:04 10° NE 21:17:49 35° NNW 21:22:35 10° W visible
29 Apr 3.6 22:53:15 10° NNE 22:58:02 35° NW 23:02:48 10° WSW visible
30 Apr 3.6 00:33:27 10° N 00:38:14 35° WNW 00:43:00 10° SW visible
30 Apr 3.6 02:13:39 10° NNW 02:18:26 35° W 02:23:11 10° SSW visible
30 Apr 3.6 03:53:51 10° NW 03:58:38 35° WSW 04:03:24 10° S visible
30 Apr 3.6 05:34:04 10° WNW 05:38:50 35° SW 05:43:36 10° SSE visible
30 Apr 3.6 07:14:15 10° WSW 07:19:01 35° S 07:23:48 10° SE visible
30 Apr 3.6 08:54:27 10° SW 08:59:13 35° SSE 09:03:59 10° E visible
30 Apr 3.6 10:34:40 10° SSW 10:39:26 35° SE 10:44:12 10° ENE visible
30 Apr 3.6 12:14:52 10° S 12:19:38 35° ESE 12:24:24 10° NE visible
30 Apr 3.6 13:55:04 10° SSE 13:59:50 35° E 14:04:36 10° NNE visible
30 Apr 3.6 15:35:16 10° SE 15:40:02 35° ENE 15:44:48 10° N visible
30 Apr 3.6 17:15:28 10° ESE 17:20:14 35° NE 17:25:00 10° NNW visible
30 Apr 3.6 18:55:40 10° E 19:00:26 35° NNE 19:05:12 10° NW visible
30 Apr 3.6 20:35:52 10° ENE 20:40:38 35° N 20:45:24 10° WNW visible
30 Apr 3.6 22:16:04 10° NNE 22:20:51 35° NW 22:25:36 10° W visible
30 Apr 3.6 23:56:16 10° N 00:01:02 35° WNW 00:05:49 10° SW visible
01 May 3.6 01:36:28 10° NNW 01:41:14 35° W 01:46:01 10° SSW visible
01 May 3.6 03:16:40 10° NW 03:21:26 35° WSW 03:26:12 10° S visible
01 May 3.6 04:56:52 10° WNW 05:01:39 35° SW 05:06:25 10° SSE visible
01 May 3.6 06:37:04 10° W 06:41:51 35° SSW 06:46:36 10° SE visible
01 May 3.6 08:17:16 10° WSW 08:22:03 35° S 08:26:45 10° ESE visible
01 May 3.6 09:57:28 10° SW 10:02:15 35° SSE 10:06:56 10° E visible
01 May 3.6 11:37:40 10° SSW 11:42:27 35° SE 11:47:06 11° ENE visible
01 May 3.6 13:17:52 10° SSE 13:22:39 35° E 13:27:16 11° NE visible
01 May 3.6 14:58:05 10° SE 15:02:50 35° ENE 15:07:26 11° N visible
01 May 3.6 16:38:17 10° ESE 16:43:03 35° NE 16:47:36 11° NNW visible
01 May 3.6 18:18:29 10° E 18:23:15 35° NNE 18:27:47 11° NW visible
01 May 3.6 19:58:41 10° ENE 20:03:27 35° N 20:07:56 11° WNW visible
01 May 3.6 21:38:53 10° NE 21:43:40 35° NNW 21:48:06 12° W visible
01 May 3.6 23:19:05 10° NNE 23:23:51 35° NW 23:28:17 12° WSW visible
02 May 3.6 00:59:17 10° N 01:04:03 35° WNW 01:08:27 12° SW visible
02 May 3.6 02:39:29 10° NW 02:44:16 35° W 02:48:37 12° SSW visible
02 May 3.6 04:19:41 10° WNW 04:24:28 35° SW 04:28:47 12° S visible
02 May 3.6 05:59:53 10° W 06:04:40 35° SSW 06:08:57 12° SE visible
02 May 3.6 07:40:05 10° WSW 07:44:52 35° S 07:49:07 12° ESE visible
02 May 3.6 09:20:18 10° SW 09:25:04 35° SSE 09:29:18 13° E visible
02 May 3.6 11:00:30 10° SSW 11:05:16 35° SE 11:09:28 13° ENE visible
02 May 3.6 12:40:42 10° S 12:45:28 35° ESE 12:49:38 13° NE visible
02 May 3.6 14:20:54 10° SSE 14:25:40 35° E 14:29:48 13° NNE visible
02 May 3.6 16:01:06 10° SE 16:05:52 35° ENE 16:09:58 13° N visible
02 May 3.6 17:41:18 10° E 17:46:04 35° NE 17:50:09 13° NNW visible
02 May 3.6 19:21:30 10° ENE 19:26:16 35° N 19:30:19 14° NW visible
02 May 3.6 21:01:42 10° NE 21:06:28 35° NNW 21:10:29 14° WNW visible
02 May 3.6 22:41:54 10° NNE 22:46:40 35° NW 22:50:40 14° WSW visible
03 May 3.6 00:22:06 10° N 00:26:52 35° WNW 00:30:50 14° SW visible
03 May 3.6 02:02:18 10° NNW 02:07:04 35° W 02:11:00 14° SSW visible
03 May 3.6 03:42:30 10° NW 03:47:16 35° WSW 03:51:10 14° S visible
03 May 3.6 05:22:42 10° WNW 05:27:28 35° SW 05:31:21 15° SSE visible
03 May 3.6 07:02:54 10° W 07:07:40 35° SSW 07:11:31 15° SE visible
03 May 3.6 08:43:07 10° SW 08:47:53 35° S 08:51:41 15° ESE visible
03 May 3.6 10:23:19 10° SSW 10:28:05 35° SE 10:31:52 15° E visible
03 May 3.6 12:03:31 10° S 12:08:17 35° ESE 12:12:02 15° ENE visible
03 May 3.6 13:43:43 10° SSE 13:48:29 35° E 13:52:13 15° NNE visible
03 May 3.6 15:23:55 10° SE 15:28:41 35° ENE 15:32:23 16° N visible
03 May 3.6 17:04:07 10° ESE 17:08:53 35° NE 17:12:34 16° NNW visible
03 May 3.6 18:44:18 10° E 18:49:05 35° NNE 18:52:44 16° NW visible
03 May 3.6 20:24:31 10° ENE 20:29:17 35° N 20:32:55 16° WNW visible
03 May 3.6 22:04:43 10° NE 22:09:29 35° NNW 22:13:05 16° W visible
03 May 3.6 23:44:55 10° N 23:49:41 35° WNW 23:53:15 16° WSW visible
04 May 3.6 01:25:07 10° NNW 01:29:53 35° W 01:33:25 16° SW visible
04 May 3.6 03:05:19 10° NW 03:10:05 35° WSW 03:13:36 17° SSW visible
04 May 3.6 04:45:31 10° WNW 04:50:17 35° SW 04:53:46 17° S visible
04 May 3.6 06:25:43 10° W 06:30:29 35° SSW 06:33:56 17° SE visible
04 May 3.6 08:05:55 10° WSW 08:10:42 35° S 08:14:08 17° ESE visible
04 May 3.6 09:46:08 10° SW 09:50:54 35° SSE 09:54:18 17° E visible
04 May 3.6 11:26:20 10° SSW 11:31:06 35° SE 11:34:28 17° ENE visible
04 May 3.6 13:06:31 10° S 13:11:18 35° ESE 13:14:39 18° NE visible
04 May 3.6 14:46:44 10° SE 14:51:30 35° ENE 14:54:49 18° NNE visible
04 May 3.6 16:26:56 10° ESE 16:31:42 35° NE 16:35:00 18° N visible
04 May 3.6 18:07:08 10° E 18:11:54 35° NNE 18:15:11 18° NNW visible
04 May 3.6 19:47:20 10° ENE 19:52:06 35° N 19:55:20 18° NW visible
04 May 3.6 21:27:32 10° NE 21:32:18 35° NNW 21:35:31 18° WNW visible
04 May 3.6 23:07:44 10° NNE 23:12:30 35° NW 23:15:41 19° WSW visible
